Location: Alpha Ridge Park
(39.3209°N, 76.9128°W)
Time: 07:35:43
(UTC-04:00)

AO-92 - Pass Details

Date: 07 July 2022
Orbit: 469 x 481 km, 97.4° (Epoch: 10 August)

Event Time Altitude Azimuth Distance (km) Brightness Sun altitude
Exits shadow 22:27:20 20° 79° (E) 1,163 ? -17.1°
Maximum altitude 22:27:44 20° 70° (ENE) 1,150 ? -17.2°
Drops below altitude 10° 22:30:26 10° 21° (NNE) 1,667 ? -17.5°
Sets 22:32:52 0° 4° (N) 2,554 ? -17.8°
